Flag for U.S.A. Weather past 2 weeks in Beaumont, Texas, U.S.A.

Now
63 °F

Clear.


Feels Like: 63 °F
Forecast: 55 / 77 °F
Wind: 8 mph from Northeast

Location: Jefferson County Airport

Current Time: Oct 23, 2014 at 4:07:02 AM

Latest Report: Oct 23, 2014 at 2:53 AM


Visibility: 10 mi

Pressure: 30.06 "Hg

Humidity: 70%

Dew point: 53 °F

Location of BeaumontLocation

Historic Weather in Beaumont — Graph

°F

Beaumont temperature yesterday

Maximum temperature yesterday: 82 °F (at 2:53 PM)
Minimum temperature yesterday: 63 °F (at 12:53 AM)
Average temperature yesterday: 71 °F

Past Weeks' High & Low Weather Summary

 TemperatureHumidityPressure
High90 °F (Oct 10, 2:53 PM)97% (Oct 8, 5:53 AM)30.11 "Hg (Oct 8, 5:53 AM)
Low52 °F (Oct 15, 5:53 AM)31% (Oct 15, 12:53 PM)29.71 "Hg (Oct 13, 11:53 AM)
Average73 °F74%29.98 "Hg
* Reported Oct 8 2:53 AM — Oct 23 2:53 AM, Beaumont, Weather by CustomWeather, © 2014

Note: Actual official high and low records may vary slightly from our data, if they occured in-between our weather recording intervals... More about our weather records

Advertising

Beaumont weather history for previous 24 hours

 ConditionsComfort  
Time TempWeatherWind HumidityBarometerVisibility
2:53 AM
Oct 23
63 °FClear.8 mph70%30.06 "Hg10 mi
1:53 AM64 °FClear.8 mph70%30.07 "Hg10 mi
12:53 AM65 °FClear.9 mph68%30.07 "Hg10 mi
11:53 PM
Oct 22
66 °FClear.8 mph70%30.09 "Hg10 mi
10:53 PM67 °FClear.3 mph73%30.09 "Hg10 mi
9:53 PM69 °FClear.7 mph68%30.08 "Hg10 mi
8:53 PM69 °FClear.5 mph73%30.06 "Hg10 mi
7:53 PM72 °FClear.7 mph66%30.05 "Hg10 mi
6:53 PM74 °FSunny.7 mph57%30.03 "Hg10 mi
5:53 PM79 °FSunny.8 mph47%30.02 "Hg10 mi
4:53 PM81 °FSunny.13 mph44%30.02 "Hg10 mi
3:53 PM82 °FSunny.12 mph43%30.03 "Hg10 mi
2:53 PM82 °FSunny.13 mph44%30.04 "Hg10 mi
1:53 PM80 °FPassing clouds.6 mph49%30.06 "Hg10 mi
12:53 PM80 °FPartly sunny.6 mph49%30.08 "Hg10 mi
11:53 AM79 °FScattered clouds.13 mph50%30.10 "Hg10 mi
10:53 AM76 °FSunny.12 mph58%30.11 "Hg10 mi
9:53 AM73 °FSunny.12 mph64%30.10 "Hg10 mi
8:53 AM68 °FSunny.7 mph78%30.09 "Hg9 mi
7:53 AM64 °FClear.7 mph87%30.06 "Hg7 mi
6:53 AM63 °FClear.N/A90%30.05 "Hg9 mi
5:53 AM64 °FClear.7 mph90%30.03 "Hg8 mi
4:53 AM65 °FClear.7 mph91%30.02 "Hg8 mi
Weather by CustomWeather, © 2014

See weather overviewHow to use our weather pages